Location: Banff
(51.1667°N, 115.5667°W)
Time: 21:25:31
(UTC+00:00)

X-37B - Pass Details

Date: 03 November 2020
Orbit: 384 x 390 km, 45.0° (Epoch: 26 November)

Event Time Altitude Azimuth Distance (km) Brightness Sun altitude
Exits shadow 13:18:23 - 213° (SSW) 1,915 3.8 -13.0°
Reaches altitude 10° 13:20:03 10° 196° (SSW) 1,412 3.3 -12.8°
Maximum altitude 13:21:59 15° 158° (SSE) 1,147 3.4 -12.5°
Drops below altitude 10° 13:23:55 10° 121° (ESE) 1,413 4.6 -12.2°
Sets 13:26:34 0° 97° (E) 2,268 6.7 -11.8°
